Weather History for KJFK - April, 2014

Change the Weather History Date:

Monday, April 14, 2014

  Actual Average Record
Temperature  
Mean Temperature 59 °F 51 °F  
Max Temperature 66 °F 59 °F 78 °F (1949)
Min Temperature 51 °F 43 °F 27 °F (1950)
Degree Days  
Heating Degree Days 6 14  
Month to date heating degree days 197 231  
Since 1 July heating degree days 4754 4467  
Cooling Degree Days 0 0  
Month to date cooling degree days 0 0  
Year to date cooling degree days 0 0  
Growing Degree Days 8 (Base 50)    
Moisture  
Dew Point 50 °F    
Average Humidity 77    
Maximum Humidity 93    
Minimum Humidity 60    
Precipitation  
Precipitation 0.00 in 0.13 in 0.74 in (1979)
Month to date precipitation 0.81 1.89  
Year to date precipitation 12.67 11.42  
Snow  
Snow 0.00 in 0.10 in 0.60 in (1950)
Month to date snowfall 0.0 0.6  
Since 1 July snowfall 45.5 23.6  
Snow Depth 0.00 in    
Sea Level Pressure  
Sea Level Pressure 29.97 in    
Wind  
Wind Speed 23 mph (South)    
Max Wind Speed 36 mph    
Max Gust Speed 47 mph    
Visibility 9 miles    
Events Fog    
T = Trace of Precipitation, MM = Missing Value Source: NWS Daily Summary

Daily Weather History Graph

Daily Weather History Graph

Search for Another Location

Airport or City:

Trip Planner

Search our weather history database for the weather conditions in past years. The results will help you decide how hot, cold, wet, or windy it might be!

Date:

Astronomy

Apr. 14, 2014 Rise Set
Actual Time 6:17 AM EDT 7:33 PM EDT
Civil Twilight 5:49 AM EDT 8:01 PM EDT
Nautical Twilight 5:15 AM EDT 8:35 PM EDT
Astronomical Twilight 4:40 AM EDT 9:11 PM EDT
Moon 7:09 PM EDT (4/14) 5:48 AM EDT (4/14)
Length of Visible Light 14h 11m
Length of Day
13h 15m
Full, 100% of the Moon is Illuminated
Apr 14
Full
Apr 15
Full
Apr 22
Last Quarter
Apr 29
New
May 6
First Quarter

Hourly Weather History & Observations

Time (EDT) Temp. Dew Point Humidity Pressure Visibility Wind Dir Wind Speed Gust Speed Precip Events Conditions
12:51 AM 53.1 °F 48.9 °F 86% 30.06 in 10.0 mi South 16.1 mph - N/A   Partly Cloudy
1:51 AM 53.1 °F 48.9 °F 86% 30.05 in 10.0 mi South 15.0 mph - N/A   Scattered Clouds
2:51 AM 53.1 °F 48.9 °F 86% 30.04 in 10.0 mi South 15.0 mph - N/A   Scattered Clouds
3:51 AM 52.0 °F 48.0 °F 86% 30.02 in 10.0 mi South 16.1 mph - N/A   Partly Cloudy
4:51 AM 52.0 °F 48.9 °F 89% 30.02 in 10.0 mi South 15.0 mph - N/A   Mostly Cloudy
5:51 AM 51.1 °F 48.0 °F 89% 30.01 in 10.0 mi South 15.0 mph - N/A   Mostly Cloudy
6:51 AM 52.0 °F 48.9 °F 89% 30.03 in 9.0 mi South 13.8 mph - N/A   Mostly Cloudy
7:51 AM 53.1 °F 48.9 °F 86% 30.03 in 9.0 mi South 17.3 mph - N/A   Mostly Cloudy
8:51 AM 55.0 °F 50.0 °F 83% 30.04 in 10.0 mi South 18.4 mph - N/A   Mostly Cloudy
9:51 AM 57.0 °F 51.1 °F 81% 30.04 in 10.0 mi South 17.3 mph - N/A   Mostly Cloudy
10:51 AM 60.1 °F 51.1 °F 72% 30.03 in 10.0 mi South 20.7 mph - N/A   Mostly Cloudy
11:51 AM 62.1 °F 51.1 °F 67% 30.01 in 10.0 mi South 25.3 mph - N/A   Mostly Cloudy
12:51 PM 60.1 °F 50.0 °F 69% 29.98 in 10.0 mi South 26.5 mph - N/A   Mostly Cloudy
1:51 PM 60.1 °F 50.0 °F 69% 29.98 in 10.0 mi South 28.8 mph 35.7 mph N/A   Mostly Cloudy
2:51 PM 64.9 °F 50.0 °F 58% 29.95 in 10.0 mi South 25.3 mph 34.5 mph N/A   Mostly Cloudy
3:51 PM 62.1 °F 50.0 °F 65% 29.92 in 10.0 mi South 32.2 mph 40.3 mph N/A   Mostly Cloudy
4:51 PM 61.0 °F 48.9 °F 64% 29.91 in 10.0 mi South 34.5 mph 47.2 mph N/A   Mostly Cloudy
5:51 PM 57.9 °F 48.0 °F 70% 29.90 in 10.0 mi South 31.1 mph 41.4 mph N/A   Mostly Cloudy
6:51 PM 55.9 °F 48.9 °F 77% 29.90 in 10.0 mi South 28.8 mph 36.8 mph N/A   Mostly Cloudy
7:51 PM 55.0 °F 48.9 °F 80% 29.91 in 10.0 mi South 25.3 mph 31.1 mph N/A   Mostly Cloudy
8:51 PM 54.0 °F 50.0 °F 86% 29.92 in 10.0 mi South 24.2 mph 33.4 mph N/A   Mostly Cloudy
9:51 PM 54.0 °F 50.0 °F 86% 29.91 in 10.0 mi South 23.0 mph - N/A   Overcast
10:51 PM 54.0 °F 51.1 °F 90% 29.90 in 10.0 mi South 24.2 mph 32.2 mph N/A   Overcast
11:12 PM 55.4 °F 53.6 °F 94% 29.89 in 0.5 mi South 24.2 mph 33.4 mph N/A   Overcast
11:51 PM 54.0 °F 52.0 °F 93% 29.89 in 0.5 mi South 24.2 mph 35.7 mph N/A Fog Fog